Weather reports worldwide

Advertisment
Bologna/Borgo Panigale, Italy (16140): temperature & dewpoint: 16.02.2019 22:00:00 - 22.02.2019 22:00:00 (CET)Bologna/Borgo Panigale, Italy (16140): wind speed: 16.02.2019 22:00:00 - 22.02.2019 22:00:00 (CET)Bologna/Borgo Panigale, Italy (16140): wind direction: 16.02.2019 22:00:00 - 22.02.2019 22:00:00 (CET)Bologna/Borgo Panigale, Italy (16140): reduced air pressure: 16.02.2019 22:00:00 - 22.02.2019 22:00:00 (CET)Bologna/Borgo Panigale, Italy (16140): visibility: 16.02.2019 22:00:00 - 22.02.2019 22:00:00 (CET)Bologna/Borgo Panigale, Italy (16140): precipitation: 16.02.2019 22:00:00 - 22.02.2019 22:00:00 (CET)
Date & Time tt [°C] td [°C] ff [km/h] ff [kn] dd ppp [hPa] vv [km] rr [mm]
22.02.2019 22:00:00 5,5 1,9 4 2 - 1026,4 10 0,0
22.02.2019 21:00:00 9,0 4,0 4 2 - - 10 -
22.02.2019 20:00:00 9,0 4,0 2 1 - - 10 -
22.02.2019 19:00:00 10,8 4,3 2 1 - 1024,3 10 -
22.02.2019 18:00:00 15,0 5,0 4 2 NE - 10 -
22.02.2019 17:00:00 18,0 4,0 8 4 ENE - 10 -
22.02.2019 16:00:00 17,9 3,9 8 4 NNE 1023,0 10 0,0
22.02.2019 15:00:00 18,0 3,0 5 3 - - 10 -
22.02.2019 14:00:00 18,0 3,0 9 5 NW - 10 -
22.02.2019 13:00:00 16,9 2,7 11 6 NW 1023,2 10 -
22.02.2019 12:00:00 16,0 3,0 15 8 W - 10 -
22.02.2019 11:00:00 14,0 4,0 11 6 W - 10 -
22.02.2019 10:00:00 10,8 4,5 8 4 W 1024,1 10 0,0
22.02.2019 09:00:00 8,0 4,0 9 5 SSW - 10 -
22.02.2019 08:00:00 5,0 3,0 11 6 SSW - 10 -
22.02.2019 07:00:00 4,9 2,0 8 4 SSW 1024,6 8 -
22.02.2019 06:00:00 4,0 2,0 9 5 SW - 8 -
22.02.2019 05:00:00 4,0 2,0 5 3 W - 10 -
22.02.2019 04:00:00 5,1 2,7 5 3 WSW 1025,1 10 0,0
22.02.2019 03:00:00 6,0 3,0 13 7 SSW - 7 -
22.02.2019 02:00:00 5,0 2,0 9 5 SSW - 5 -
22.02.2019 01:00:00 4,6 2,8 4 2 - 1026,6 5 -
22.02.2019 00:00:00 7,0 4,0 16 9 SSW - 5 -
21.02.2019 23:00:00 6,0 3,0 9 5 SSW - 5 -
21.02.2019 22:00:00 5,4 2,9 4 2 - 1026,5 6 0,0
21.02.2019 21:00:00 7,0 4,0 8 4 SSW - 6 -
21.02.2019 20:00:00 8,0 4,0 4 2 SW - 5 -
21.02.2019 19:00:00 7,7 4,9 2 1 ENE 1026,5 5 -
21.02.2019 18:00:00 12,0 5,0 2 1 - - 6 -
21.02.2019 17:00:00 14,0 5,0 5 3 N - 6 -
21.02.2019 16:00:00 14,5 4,7 5 3 WNW 1026,6 6 0,0
21.02.2019 15:00:00 14,0 5,0 8 4 NW - 6 -
21.02.2019 14:00:00 14,0 5,0 5 3 - - 6 -
21.02.2019 13:00:00 12,6 4,4 8 4 NW 1028,3 6 -
21.02.2019 12:00:00 11,0 4,0 5 3 - - 6 -
21.02.2019 11:00:00 9,0 4,0 8 4 W - 6 -
21.02.2019 10:00:00 7,8 3,2 5 3 W 1029,2 7 0,0
21.02.2019 09:00:00 6,0 3,0 8 4 SSW - 10 -
21.02.2019 08:00:00 3,0 1,0 8 4 SSW - 8 -
21.02.2019 07:00:00 3,1 0,8 5 3 SW 1027,5 7 -
21.02.2019 06:00:00 3,0 1,0 9 5 SSW - 7 -
21.02.2019 05:00:00 3,0 1,0 8 4 SW - 6 -
21.02.2019 04:00:00 3,1 1,5 11 6 SSW 1027,3 6 0,0
21.02.2019 03:00:00 4,0 2,0 11 6 SSW - 7 -
21.02.2019 02:00:00 3,0 1,0 8 4 SW - 6 -
21.02.2019 01:00:00 4,4 2,0 5 3 SW 1027,0 6 -
21.02.2019 00:00:00 4,0 2,0 4 2 SW - 6 -
20.02.2019 23:00:00 5,0 2,0 5 3 WSW - 5 -
20.02.2019 22:00:00 4,9 3,1 2 1 N 1026,2 5 0,0
20.02.2019 21:00:00 6,0 4,0 2 1 - - 5 -
20.02.2019 20:00:00 7,0 4,0 0 0 N - 6 -
20.02.2019 19:00:00 8,1 4,3 4 2 NE 1025,0 6 -
20.02.2019 18:00:00 11,0 5,0 5 3 NE - 6 -
20.02.2019 17:00:00 12,0 4,0 4 2 - - 7 -
20.02.2019 16:00:00 12,3 4,9 5 3 NE 1024,6 7 0,0
20.02.2019 15:00:00 12,0 5,0 8 4 NNE - 7 -
20.02.2019 14:00:00 11,0 5,0 4 2 - - 7 -
20.02.2019 13:00:00 10,0 4,0 8 4 - - 7 -
20.02.2019 12:00:00 8,0 3,0 5 3 N - 6 -
20.02.2019 11:00:00 6,0 4,0 4 2 - - 6 -
20.02.2019 10:00:00 3,4 3,1 4 2 - 1025,9 4,0 0,0
20.02.2019 09:00:00 1,0 0,0 2 1 - - 2,0 -
20.02.2019 08:00:00 -1,0 -1,0 2 1 - - 0,1 -
20.02.2019 07:00:00 -1,4 -1,7 2 1 - 1024,4 - -
20.02.2019 06:00:00 -2,0 -2,0 4 2 - - - -
20.02.2019 05:00:00 -1,0 -1,0 4 2 NNW - 0,8 -
20.02.2019 04:00:00 0,0 -1,0 8 4 SW - 0,1 -
20.02.2019 03:00:00 1,0 0,0 8 4 SSW - 0,1 -
20.02.2019 02:00:00 1,0 0,0 4 2 - - 0,1 -
20.02.2019 01:00:00 0,8 0,4 5 3 N 1024,0 0,1 -
20.02.2019 00:00:00 3,0 1,0 5 3 N - 6 -
19.02.2019 23:00:00 5,0 1,0 8 4 WSW - 10 -
19.02.2019 22:00:00 7,8 1,9 8 4 SSW 1022,9 10 0,0
19.02.2019 21:00:00 9,0 2,0 4 2 - - 10 -
19.02.2019 20:00:00 10,0 2,0 11 6 S - 10 -
19.02.2019 19:00:00 10,9 2,2 11 6 SSE 1022,2 10 -
19.02.2019 18:00:00 12,0 3,0 5 3 NE - 10 -
19.02.2019 17:00:00 14,0 3,0 5 3 NE - 10 -
19.02.2019 16:00:00 14,1 2,9 4 2 - 1021,5 10 0,0
19.02.2019 15:00:00 14,0 3,0 4 2 - - 10 -
19.02.2019 14:00:00 14,0 3,0 5 3 - - 10 -
19.02.2019 13:00:00 12,8 3,1 5 3 N 1022,8 15 -
19.02.2019 12:00:00 12,0 4,0 8 4 NW - 10 -
19.02.2019 11:00:00 11,0 4,0 8 4 NW - 10 -
19.02.2019 10:00:00 10,0 3,5 5 3 WSW 1023,3 10 0,0
19.02.2019 09:00:00 7,0 2,0 11 6 SSW - 10 -
19.02.2019 08:00:00 5,0 2,0 11 6 SSW - 10 -
19.02.2019 07:00:00 4,6 1,4 11 6 SSW 1022,5 10 -
19.02.2019 06:00:00 5,0 1,0 11 6 SW - 10 -
19.02.2019 05:00:00 4,0 1,0 9 5 SW - 10 -
19.02.2019 04:00:00 3,0 0,8 9 5 W 1022,2 10 0,0
19.02.2019 03:00:00 6,0 2,0 13 7 SSW - 10 -
19.02.2019 02:00:00 5,0 1,0 9 5 SW - 10 -
19.02.2019 01:00:00 4,3 1,2 9 5 WSW 1022,8 10 -
19.02.2019 00:00:00 6,0 2,0 5 3 WSW - 10 -
18.02.2019 23:00:00 7,0 2,0 8 4 WSW - 10 -
18.02.2019 22:00:00 6,4 1,9 11 6 SW 1022,5 10 0,0
18.02.2019 21:00:00 10,0 2,0 9 5 SSW - 10 -
18.02.2019 20:00:00 11,0 2,0 11 6 S - 10 -
18.02.2019 19:00:00 8,7 2,4 4 2 ENE 1022,1 10 -
18.02.2019 18:00:00 13,0 3,0 5 3 NE - 10 -
18.02.2019 17:00:00 16,0 3,0 8 4 NNE - 10 -
18.02.2019 16:00:00 16,0 2,7 5 3 E 1022,2 10 0,0
18.02.2019 15:00:00 16,0 3,0 8 4 W - 10 -
18.02.2019 14:00:00 15,0 3,0 9 5 - - 10 -
18.02.2019 13:00:00 14,8 3,4 9 5 N 1024,1 10 -
18.02.2019 12:00:00 14,0 3,0 11 6 NW - 10 -
18.02.2019 11:00:00 13,0 3,0 11 6 W - 10 -
18.02.2019 10:00:00 11,3 2,7 9 5 SW 1025,3 10 0,0
18.02.2019 09:00:00 8,0 2,0 13 7 SSW - 10 -
18.02.2019 08:00:00 5,0 1,0 15 8 SSW - 10 -
18.02.2019 07:00:00 5,0 1,0 11 6 SSW 1025,2 10 -
18.02.2019 06:00:00 5,0 1,0 8 4 SW - 10 -
18.02.2019 05:00:00 6,0 1,0 8 4 SW - 10 -
18.02.2019 04:00:00 6,1 1,3 15 8 SSW 1025,2 10 0,0
18.02.2019 03:00:00 7,0 2,0 15 8 SSW - 10 -
18.02.2019 02:00:00 7,0 2,0 16 9 SSW - 10 -
18.02.2019 01:00:00 6,4 1,6 15 8 SSW 1025,9 10 -
18.02.2019 00:00:00 6,0 1,0 8 4 WSW - 10 -
17.02.2019 23:00:00 7,0 2,0 5 3 SSW - 7 -
17.02.2019 22:00:00 5,3 0,8 8 4 SW 1026,1 6 0,0
17.02.2019 21:00:00 8,0 2,0 8 4 SSW - 6 -
17.02.2019 20:00:00 8,0 2,0 5 3 SSW - 6 -
17.02.2019 19:00:00 8,6 1,9 2 1 - 1025,8 6 -
17.02.2019 18:00:00 12,0 2,0 2 1 NNE - 6 -
17.02.2019 17:00:00 16,0 2,0 4 2 - - 6 -
17.02.2019 16:00:00 16,4 1,9 8 4 WNW 1026,1 6 0,0
17.02.2019 15:00:00 16,0 3,0 9 5 NW - 5 -
17.02.2019 14:00:00 15,0 3,0 11 6 WNW - 5 -
17.02.2019 13:00:00 14,5 2,8 11 6 WNW 1028,1 5 -
17.02.2019 12:00:00 12,0 3,0 13 7 WNW - 5 -
17.02.2019 11:00:00 - - - - - - - -
17.02.2019 10:00:00 9,1 1,1 8 4 WSW 1029,4 10 0,0
17.02.2019 09:00:00 5,0 -1,0 5 3 WSW - 10 -
17.02.2019 08:00:00 3,0 -2,0 8 4 SSW - 10 -
17.02.2019 07:00:00 2,7 -1,9 16 9 SSW 1029,0 10 -
17.02.2019 06:00:00 3,0 -2,0 15 8 SSW - 10 -
17.02.2019 05:00:00 3,0 -2,0 13 7 SSW - 10 -
17.02.2019 04:00:00 3,8 -1,2 13 7 SSW 1028,9 10 0,0
17.02.2019 03:00:00 4,0 -1,0 15 8 SSW - 10 -
17.02.2019 02:00:00 5,0 0,0 16 9 SSW - 10 -
17.02.2019 01:00:00 4,8 -0,3 15 8 SSW 1029,8 10 -
17.02.2019 00:00:00 6,0 0,0 15 8 SSW - 10 -
16.02.2019 23:00:00 6,0 1,0 13 7 SSW - 10 -
16.02.2019 22:00:00 6,2 1,3 9 5 SSW 1030,1 10 0,0

tt = temperature
td = dewpoint
ff = wind speed
dd = wind direction
ppp = reduced air pressure
vv = visibility
rr = precipitation

Next stations